Location: Newark
(45.4426°N, 12.3253°E)
Time: 22:48:23
(UTC+00:00)

OTV 5 (USA 277) - Pass Details

Date: 01 November 2019
Orbit: 310 x 324 km, 54.5° (Epoch: 17 October)

Event Time Altitude Azimuth Distance (km) Brightness Sun altitude
Rises 18:01:24 0° 268° (W) 2,061 ? -22.0°
Reaches altitude 10° 18:03:37 10° 284° (WNW) 1,234 ? -22.4°
Enters shadow 18:05:08 20° 315° (NW) 833 ? -22.6°
